Flag for Australia Weather past 2 weeks in Canberra, Australian Capital Territory, Australia

Now
36 °F

Low clouds.


Feels Like: 36 °F
Forecast: 30 / 49 °F
Wind: No wind

Location: Canberra Airport

Current Time: Jul 6, 2015 at 1:16:25 AM

Latest Report: Jul 6, 2015 at 12:00 AM


Visibility: 1 mi

Pressure: 30.09 "Hg (28.01 "Hg at 577m altitude)

Humidity: 100%

Dew point: 36 °F

Location of CanberraLocation

Historic Weather in Canberra — Graph

°F

Canberra temperature yesterday

Maximum temperature yesterday: 45 °F (at 3:30 PM)
Minimum temperature yesterday: 25 °F (at 3:30 AM)
Average temperature yesterday: 33 °F

Past Weeks' High & Low Weather Summary

 TemperatureHumidityPressure
High61 °F (Jun 25, 2:00 PM)100% (Jun 21, 1:00 AM)30.54 "Hg (Jun 21, 1:00 AM)
Low21 °F (Jul 3, 5:30 AM)35% (Jul 3, 1:30 PM)30.01 "Hg (Jul 2, 2:00 PM)
Average39 °F84%30.30 "Hg
* Reported Midnight between Jun 20 and Jun 21 — Midnight between Jul 5 and Jul 6, Canberra, Weather by CustomWeather, © 2015

Note: Actual official high and low records may vary slightly from our data, if they occured in-between our weather recording intervals... More about our weather records

Advertising

Canberra weather history for previous 24 hours

 ConditionsComfort  
Time TempWeatherWind HumidityBarometerVisibility
12:00 AM
Mon, Jul 6
36 °FLow clouds.No wind100%30.09 "Hg1 mi
11:30 PM
Sun, Jul 5
36 °FLow clouds.No wind100%30.09 "HgN/A
11:00 PM34 °FLow clouds.No wind100%30.09 "HgN/A
10:30 PM34 °FLow clouds.No wind100%30.09 "HgN/A
10:00 PM34 °FLow clouds.No wind93%30.09 "HgN/A
9:30 PM32 °FOvercast.No wind100%30.09 "HgN/A
9:01 PM30 °FOvercast.No wind100%30.09 "Hg6 mi
8:30 PM30 °FPassing clouds.No wind93%30.09 "Hg0 mi
8:00 PM32 °FPassing clouds.No wind93%30.09 "HgN/A
7:00 PM32 °FPassing clouds.2 mph100%30.09 "HgN/A
6:00 PM34 °FClear.5 mph93%30.07 "Hg10 mi
5:30 PM36 °FClear.3 mph87%30.07 "Hg10 mi
5:00 PM41 °FClear.5 mph81%30.07 "Hg10 mi
4:30 PM43 °FClear.5 mph76%30.07 "Hg10 mi
4:00 PM43 °FBroken clouds.6 mph81%30.07 "HgN/A
3:30 PM45 °FPartly sunny.6 mph71%30.07 "HgN/A
3:00 PM43 °FBroken clouds.6 mph81%30.07 "HgN/A
2:30 PM43 °FPartly sunny.5 mph76%30.07 "HgN/A
1:30 PM41 °FPartly sunny.6 mph87%30.09 "HgN/A
1:00 PM37 °FLow clouds.5 mph93%30.12 "Hg6 mi
12:30 PM36 °FLow clouds.6 mph100%30.12 "Hg5 mi
12:00 PM36 °FFog.6 mph100%30.12 "Hg3 mi
11:30 AM36 °FFog.3 mph93%30.15 "Hg2 mi
11:00 AM34 °FFog.3 mph100%30.15 "Hg1 mi
10:30 AM34 °FFog.3 mph100%30.18 "Hg1 mi
10:00 AM34 °FFog.1 mph100%30.18 "Hg1 mi
9:30 AM32 °FFog.1 mph100%30.18 "Hg1 mi
9:00 AM32 °FIce fog.5 mph100%30.18 "Hg0 mi
8:30 AM30 °FIce fog.3 mph100%30.18 "Hg0 mi
8:00 AM28 °FIce fog.5 mph100%30.18 "Hg0 mi
7:30 AM28 °FFog.No wind100%30.18 "Hg1 mi
7:00 AM28 °FIce fog.No wind100%30.18 "Hg1 mi
6:30 AM27 °FIce fog.No wind100%30.18 "Hg2 mi
6:00 AM27 °FIce fog.No wind100%30.15 "Hg2 mi
5:30 AM27 °FMostly cloudy.5 mph100%30.15 "Hg1 mi
5:00 AM25 °FPartly cloudy.No wind100%30.15 "Hg1 mi
4:30 AM25 °FCold.5 mph100%30.15 "Hg1 mi
4:00 AM25 °FClear.3 mph93%30.15 "HgN/A
3:30 AM25 °FClear.3 mph100%30.15 "HgN/A
3:00 AM27 °FChilly.No wind100%30.18 "Hg1 mi
2:00 AM28 °FClear.No wind100%30.18 "HgN/A
1:30 AM30 °FClear.No wind100%30.18 "HgN/A
1:00 AM30 °FClear.6 mph100%30.18 "HgN/A
Weather by CustomWeather, © 2015

See weather overviewHow to use our weather pages